Location: *
(32.3300°N, 34.8500°E)
Time: 07:13:15
(UTC+00:00)

Cosmos 1726 - Pass Details

Date: 22 October 2019
Orbit: 483 x 500 km, 82.5° (Epoch: 17 November)

Event Time Altitude Azimuth Distance (km) Brightness Sun altitude
Rises 02:48:51 0° 349° (N) 2,558 5.6 -13.4°
Reaches altitude 10° 02:50:58 10° 346° (NNW) 1,676 4.6 -13.0°
Maximum altitude 02:54:35 61° 266° (W) 557 2.0 -12.2°
Drops below altitude 10° 02:58:12 10° 185° (S) 1,674 4.8 -11.5°
Sets 03:00:19 0° 182° (S) 2,554 5.8 -11.0°
